(41129) = 1999 VD94 = 2000 YA139

Discovered at Socorro on 1999-11-09 by LINEAR.

Orbit

Orbit type: Main Belt

Note: WebGL enabled browser required.

epoch2023-09-13.0
epoch JD2460200.5
perihelion date2023-02-02.41402
perihelion JD2459977.91402
argument of perihelion (°)262.69564
ascending node (°)51.06861
inclination (°)2.74791
eccentricity0.0771431
perihelion distance (AU)2.6367798
Tisserand w.r.t. Jupiter3.3
ΔV w.r.t. Earth (km/sec)10.2
semimajor axis (AU)2.8571925
mean anomaly (°)45.42474
mean daily motion (°/day)0.20407730
aphelion distance (AU)3.078
period (years)4.83
P-vector [x]0.69080552
P-vector [y]-0.64302521
P-vector [z]-0.33061505
Q-vector [x]0.72207819
Q-vector [y]0.63712454
Q-vector [z]0.26958378
absolute magnitude15.29
phase slope0.15
uncertainty0
referenceMPEC 2024-A48
observations used851
oppositions21
arc length (days)11596
first opposition used1992
last opposition used2023
residual rms (arc-secs)0.75
perturbers coarse indicatorM-v
perturbers precise indicator003Ek
first observation date used1992-03-07.0
last observation date used2023-12-06.0
computer nameMPCLINUX
JD of orbit computation2456966.768740
perihelion JD uncertainty (days)1.4847E-04
argument of perihelion uncertainty (°)8.4789E-05
ascending node uncertainty (°)7.8839E-05
inclination uncertainty (°)4.5515E-06
eccentricity uncertainty 3.4121E-08
perihelion distance uncertainty (AU)1.0274E-07
Minimum Orbit Intersection Distances (in AU)
for orbit epoch: 2460200.5, reference: E2024-A48
Mercury2.20149
Venus1.90857
Earth1.62399
Mars1.23161
Jupiter2.11288
Saturn6.02736
Uranus15.3981
Neptune26.9918

Observations

862 total observations over interval: 1992 03 07.23125 – 2023 12 06.200780
These data are available for download (format description).

Date (UT) J2000 RA J2000 Dec Magn Location Ref
1992 03 07.23125 11 02 39.06 +10 12 28.5   809 – European Southern Observatory, La Silla MPS 25063
1994 09 10.38885 00 46 03.88 +01 28 27.8 19.3 V 691 – Steward Observatory, Kitt Peak-Spacewatch MPS 81167
1994 09 10.39714 00 46 03.54 +01 28 25.6 19.1 V 691 – Steward Observatory, Kitt Peak-Spacewatch MPS 81167
1994 09 10.40596 00 46 03.21 +01 28 23.7 19.1 V 691 – Steward Observatory, Kitt Peak-Spacewatch MPS 81167
1999 10 02.32617 01 48 55.75 +08 57 58.9 18.8 R 703 – Catalina Sky Survey MPS 15546
1999 10 02.33857 01 48 55.16 +08 57 54.5 19.0 R 703 – Catalina Sky Survey MPS 15546
1999 10 02.35087 01 48 54.57 +08 57 52.2 19.6 R 703 – Catalina Sky Survey MPS 15546
1999 10 02.36317 01 48 53.98 +08 57 50.6 19.9 R 703 – Catalina Sky Survey MPS 15546
1999 10 15.25986 01 38 34.14 +08 08 44.6 18.7   704 – Lincoln Laboratory ETS, New Mexico MPS 13996
1999 10 15.27698 01 38 33.27 +08 08 40.4 19.1   704 – Lincoln Laboratory ETS, New Mexico MPS 13996
1999 10 15.29320 01 38 32.37 +08 08 36.2 19.1   704 – Lincoln Laboratory ETS, New Mexico MPS 13996
1999 10 15.31018 01 38 31.52 +08 08 32.9 19.2   704 – Lincoln Laboratory ETS, New Mexico MPS 13996
1999 10 15.32619 01 38 30.69 +08 08 29.0 19.2   704 – Lincoln Laboratory ETS, New Mexico MPS 13996
1999 10 19.20944 01 35 13.14 +07 53 04.1 18.7   704 – Lincoln Laboratory ETS, New Mexico MPS 13996
1999 10 19.22318 01 35 12.46 +07 53 01.9 18.4   704 – Lincoln Laboratory ETS, New Mexico MPS 13996
1999 10 19.23698 01 35 11.72 +07 52 58.1 18.6   704 – Lincoln Laboratory ETS, New Mexico MPS 13996
1999 10 19.25077 01 35 11.00 +07 52 54.4 18.6   704 – Lincoln Laboratory ETS, New Mexico MPS 13996
1999 11 06.15319 01 21 06.16 +06 50 05.7 19.4   704 – Lincoln Laboratory ETS, New Mexico MPS 15546
1999 11 06.16957 01 21 05.55 +06 50 02.4 19.7   704 – Lincoln Laboratory ETS, New Mexico MPS 15546
1999 11 06.18590 01 21 04.71 +06 49 59.1 19.7   704 – Lincoln Laboratory ETS, New Mexico MPS 15546
1999 11 06.20225 01 21 04.11 +06 49 56.4 19.5   704 – Lincoln Laboratory ETS, New Mexico MPS 15546
1999 11 06.21854 01 21 03.42 +06 49 54.7 19.6   704 – Lincoln Laboratory ETS, New Mexico MPS 15546
1999 11 09.14304 01 19 09.11 +06 42 06.6 19.5   704 – Lincoln Laboratory ETS, New Mexico MPS 8763
1999 11 09.15741 01 19 08.53 +06 42 04.4 19.8   704 – Lincoln Laboratory ETS, New Mexico MPS 8763
1999 11 09.17180 01 19 07.96 +06 42 02.5 20.0   704 – Lincoln Laboratory ETS, New Mexico MPS 8763
1999 11 09.18618 01 19 07.37 +06 42 00.8 20.3   704 – Lincoln Laboratory ETS, New Mexico MPS 8763
1999 11 12.21267 01 17 19.22 +06 34 58.8 19.0   704 – Lincoln Laboratory ETS, New Mexico MPS 8763
1999 11 12.22858 01 17 18.72 +06 34 56.6 19.4   704 – Lincoln Laboratory ETS, New Mexico MPS 8763
1999 11 12.24352 01 17 18.18 +06 34 56.1 19.4   704 – Lincoln Laboratory ETS, New Mexico MPS 8763
1999 11 12.25815 01 17 17.68 +06 34 55.8 19.3   704 – Lincoln Laboratory ETS, New Mexico MPS 8763
1999 11 12.27258 01 17 17.07 +06 34 53.0 19.5   704 – Lincoln Laboratory ETS, New Mexico MPS 8763
2000 12 27.26835 07 52 49.64 +24 20 47.0 18.4 R 699 – Lowell Observatory-LONEOS MPS 25543
2000 12 27.28407 07 52 48.76 +24 20 48.8   699 – Lowell Observatory-LONEOS MPS 25543
2000 12 27.29979 07 52 48.13 +24 20 52.6   699 – Lowell Observatory-LONEOS MPS 25543
2000 12 27.31553 07 52 47.30 +24 20 56.4   699 – Lowell Observatory-LONEOS MPS 25543
2000 12 30.32257 07 50 15.50 +24 29 56.2 19.6   704 – Lincoln Laboratory ETS, New Mexico MPS 25543
2000 12 30.35317 07 50 13.93 +24 30 02.5 19.5   704 – Lincoln Laboratory ETS, New Mexico MPS 25543
2000 12 30.36836 07 50 13.04 +24 30 04.9 19.6   704 – Lincoln Laboratory ETS, New Mexico MPS 25543
2001 01 19.27524 07 31 37.14 +25 22 49.7 19.7   704 – Lincoln Laboratory ETS, New Mexico MPS 25543
2001 01 19.30624 07 31 35.37 +25 22 54.0 19.9   704 – Lincoln Laboratory ETS, New Mexico MPS 25543
2001 01 19.32158 07 31 34.42 +25 22 55.8 19.9   704 – Lincoln Laboratory ETS, New Mexico MPS 25543
2002 03 16.37460 12 58 14.10 -03 13 26.2 19.3   704 – Lincoln Laboratory ETS, New Mexico MPS 51688
2002 03 16.38857 12 58 13.40 -03 13 23.8 19.5   704 – Lincoln Laboratory ETS, New Mexico MPS 51688
2002 03 16.40249 12 58 12.87 -03 13 19.0 19.6   704 – Lincoln Laboratory ETS, New Mexico MPS 51688
2002 03 16.41647 12 58 12.26 -03 13 17.3 19.9   704 – Lincoln Laboratory ETS, New Mexico MPS 51688
2002 03 19.32650 12 56 08.82 -03 01 00.0 19.2 R 699 – Lowell Observatory-LONEOS MPS 51688
2002 03 19.34079 12 56 08.10 -03 00 57.0   699 – Lowell Observatory-LONEOS MPS 51688
2002 03 19.35489 12 56 07.54 -03 00 54.1   699 – Lowell Observatory-LONEOS MPS 51688
2002 03 19.36900 12 56 06.81 -03 00 50.2   699 – Lowell Observatory-LONEOS MPS 51688
2002 04 10.26251 12 38 44.64 -01 23 20.1 19.4   704 – Lincoln Laboratory ETS, New Mexico MPS 54526
2002 04 10.27419 12 38 44.13 -01 23 18.4 19.6   704 – Lincoln Laboratory ETS, New Mexico MPS 54526
2002 04 10.28587 12 38 43.54 -01 23 14.5 19.5   704 – Lincoln Laboratory ETS, New Mexico MPS 54526
2002 04 10.29753 12 38 42.98 -01 23 11.7 19.2   704 – Lincoln Laboratory ETS, New Mexico MPS 54526
2002 04 17.29924 12 33 22.08 -00 55 37.8 20.1   704 – Lincoln Laboratory ETS, New Mexico MPS 54526
2002 04 17.31287 12 33 21.51 -00 55 34.4 20.3   704 – Lincoln Laboratory ETS, New Mexico MPS 54526
2002 04 17.32649 12 33 20.79 -00 55 30.7 20.3   704 – Lincoln Laboratory ETS, New Mexico MPS 54526
2002 05 10.18663 12 20 57.89 -00 02 50.0 20.4   644 – Palomar Mountain/NEAT MPS 54411
2002 05 10.19735 12 20 57.67 -00 02 49.5 19.9   644 – Palomar Mountain/NEAT MPS 54411
2002 05 10.20812 12 20 57.45 -00 02 48.9 20.2   644 – Palomar Mountain/NEAT MPS 54411
2004 10 06.44541 03 03 23.03 +16 12 23.0 19.5 V 691 – Steward Observatory, Kitt Peak-Spacewatch MPS 116161
2004 10 06.47306 03 03 22.10 +16 12 20.3 19.5 V 691 – Steward Observatory, Kitt Peak-Spacewatch MPS 116161
2004 10 06.50055 03 03 21.16 +16 12 17.5 19.5 V 691 – Steward Observatory, Kitt Peak-Spacewatch MPS 116161
2004 10 06.50590 03 03 21.02 +16 12 17.1 19.3   644 – Palomar Mountain/NEAT MPS 116161
2004 10 06.51935 03 03 20.55 +16 12 15.7 18.9   644 – Palomar Mountain/NEAT MPS 116161
2004 10 06.53299 03 03 20.11 +16 12 14.4 19.3   644 – Palomar Mountain/NEAT MPS 116161
2004 10 07.45049 03 02 49.99 +16 10 44.8 20.0 V 291 – LPL/Spacewatch II MPS 116161
2004 10 07.47592 03 02 49.11 +16 10 42.4 20.4 V 291 – LPL/Spacewatch II MPS 116161
2004 10 07.50023 03 02 48.29 +16 10 39.6 20.4 V 291 – LPL/Spacewatch II MPS 116161
2004 10 09.31142 03 01 45.37 +16 07 29.4 20.4   704 – Lincoln Laboratory ETS, New Mexico MPS 117225
2004 10 09.32227 03 01 45.00 +16 07 28.3 19.7   704 – Lincoln Laboratory ETS, New Mexico MPS 117225
2004 10 09.33314 03 01 44.60 +16 07 26.6 20.0   704 – Lincoln Laboratory ETS, New Mexico MPS 117225
2004 10 09.34414 03 01 44.15 +16 07 25.2 19.9   704 – Lincoln Laboratory ETS, New Mexico MPS 117225
2004 10 10.36081 03 01 06.84 +16 05 31.1 19.6 V 691 – Steward Observatory, Kitt Peak-Spacewatch MPS 117225
2004 10 10.38819 03 01 05.79 +16 05 27.9 19.5 V 691 – Steward Observatory, Kitt Peak-Spacewatch MPS 117225
2004 10 10.41595 03 01 04.69 +16 05 24.6 19.6 V 691 – Steward Observatory, Kitt Peak-Spacewatch MPS 117225
2004 10 14.38263 02 58 26.76 +15 57 07.7 20.1 V 691 – Steward Observatory, Kitt Peak-Spacewatch MPS 117225
2004 10 14.41091 02 58 25.52 +15 57 03.8 20.1 V 691 – Steward Observatory, Kitt Peak-Spacewatch MPS 117225
2004 10 14.44285 02 58 24.12 +15 56 59.3 20.0 V 691 – Steward Observatory, Kitt Peak-Spacewatch MPS 117225
2004 10 20.24620 02 54 02.56 +15 42 43.6 19.4 C 704 – Lincoln Laboratory ETS, New Mexico MPS 290774
2004 10 20.25590 02 54 02.07 +15 42 43.1 19.0 C 704 – Lincoln Laboratory ETS, New Mexico MPS 290774
2004 10 20.26574 02 54 01.58 +15 42 42.3 19.1 C 704 – Lincoln Laboratory ETS, New Mexico MPS 290774
2004 10 20.27544 02 54 01.13 +15 42 40.9 18.8 C 704 – Lincoln Laboratory ETS, New Mexico MPS 290774
2004 10 20.28512 02 54 00.74 +15 42 37.6 19.0 C 704 – Lincoln Laboratory ETS, New Mexico MPS 290774
2004 10 24.31000 02 50 42.28 +15 31 32.1 19.0   704 – Lincoln Laboratory ETS, New Mexico MPS 119022
